User: anonymous
Location: Columbia
(38.9520°N, 92.3340°W)
Time: 02:30:18
(UTC-05:00)
Language:

Cosmos 2100 Rocket - Orbit

View from above orbital plane
View from above orbital plane
View from above satellite
View from above satellite

Ground track
Ground track

The orbit data is extracted from the following two-line orbital elements,

1 20805U 90083B   14103.85037882  .00000118  00000-0  10600-3 0  7409
2 20805 082.9400 202.3113 0031001 037.2061 102.1059 13.75706354183850
Epoch (UTC): 13 April 2014 20:24:32
Eccentricity: 0.0031001
inclination: 82.9400°
perigee height: 956 km
apogee height: 1002 km
right ascension of ascending node: 202.3113°
argument of perigee: 37.2061°
revolutions per day: 13.75706354
mean anomaly at epoch: 102.1059°
orbit number at epoch: 18385

The dashed part of the orbit path shows where the satellite is in the earth's shadow,  

DLR